Theta_e
294 294 293 293 292 292 291 291 290 290 290 290 290 290 290 290 290 290 290 290 289 288 288 287 286 286 286 285 284 282 281 281 280 279 277 276 275 275 274 274 273 272
294 294 293 293 292 292 292 292 291 290 290 290 289 289 289 289 289 289 289 289 288 288 287 287 286 286 285 284 283 282 281 280 279 278 277 276 275 274 274 273 273 272
294 294 294 293 293 293 292 292 291 290 289 289 289 289 288 288 288 288 288 288 288 287 287 286 286 285 284 284 283 281 280 280 279 278 277 275 275 274 273 273 272 271
294 294 294 294 293 292 292 291 290 289 289 288 288 288 288 288 287 288 288 287 287 286 286 286 285 284 284 283 282 281 280 279 278 277 276 275 274 274 273 273 272 271
294 294 294 293 293 292 291 290 289 289 288 288 288 287 287 287 287 287 287 286 286 285 285 285 284 283 283 282 281 280 279 279 278 277 276 275 274 273 273 272 272 271
294 294 294 293 293 292 291 290 290 289 288 287 287 286 286 286 286 286 286 286 285 284 284 284 283 283 282 281 281 279 279 278 278 277 275 274 273 273 272 272 271 271
293 293 293 293 292 292 291 291 290 289 288 287 286 286 286 286 285 285 285 285 284 284 283 283 283 282 282 281 280 279 278 278 277 276 275 274 273 272 272 271 271 270
293 293 293 292 292 291 291 291 290 289 288 287 286 286 286 285 285 285 284 284 284 283 283 283 283 282 281 281 280 278 278 278 277 276 275 274 273 272 272 271 270 270
293 292 292 292 292 291 291 291 290 289 288 287 287 286 285 285 285 284 284 283 283 283 282 282 282 281 281 280 279 278 278 277 277 276 275 273 273 272 272 271 270 270
292 292 292 292 291 291 291 291 290 289 288 287 287 286 285 285 284 284 283 283 282 282 282 281 281 281 281 280 279 278 278 278 277 275 274 273 272 272 271 271 270 269
292 292 291 291 291 291 291 290 289 288 288 287 286 285 285 284 284 283 283 282 282 281 281 281 281 280 280 279 278 278 278 277 276 275 274 273 272 272 271 271 270 269
291 291 291 291 290 290 290 289 289 288 288 287 286 285 285 284 284 283 283 282 281 281 281 281 280 280 279 278 278 277 277 277 276 274 273 272 272 272 271 270 270 269
291 290 290 290 290 290 289 289 288 288 287 287 286 285 285 284 284 283 282 282 281 280 280 280 280 279 278 278 277 277 277 276 275 274 273 272 272 271 271 270 270 269
290 290 289 289 289 289 289 289 288 288 287 286 286 285 285 284 284 283 282 281 281 280 280 279 279 278 278 278 277 277 277 276 274 273 272 272 271 271 270 270 269 269
290 289 289 289 289 289 289 288 288 287 287 286 286 285 285 284 283 283 282 281 281 280 280 279 278 278 278 278 278 277 276 275 274 273 272 271 271 270 269 269 269 269
289 289 289 290 289 289 289 288 288 287 287 286 286 285 285 284 283 282 282 281 280 280 280 279 278 278 278 278 277 276 275 273 272 272 271 270 270 269 269 269 269 268
290 290 290 290 289 289 289 288 288 287 287 286 286 286 285 284 283 283 282 281 280 280 279 278 278 278 278 277 276 275 273 272 272 271 271 270 269 269 269 269 268 268
290 289 289 289 289 288 288 287 287 287 286 286 286 286 285 284 283 282 281 281 280 279 278 278 278 278 277 276 274 273 272 272 271 271 270 270 269 269 269 268 268 268
289 289 289 289 288 287 287 286 286 286 285 285 285 284 284 283 282 281 281 280 279 278 278 278 277 277 276 275 273 272 271 271 270 270 269 269 269 269 269 268 268 268
288 288 288 287 287 286 286 285 285 285 284 284 283 282 282 281 281 280 280 279 279 278 277 277 276 276 275 273 272 271 270 270 269 269 268 268 268 268 268 268 268 267
287 287 286 286 286 285 285 285 284 284 283 282 282 281 281 280 280 279 279 278 278 277 276 276 276 275 274 272 271 270 270 269 269 268 268 268 267 267 267 267 267 267
286 285 285 285 284 284 284 283 283 283 282 281 281 280 280 280 279 278 278 277 276 276 275 275 274 273 273 272 271 270 269 269 268 268 268 267 267 267 267 267 266 266
285 284 284 284 283 283 282 282 282 281 281 280 280 280 279 278 278 277 276 276 275 275 274 274 273 272 272 271 270 269 269 268 268 267 267 266 266 267 267 267 266 266
284 283 283 282 282 281 281 281 280 280 280 279 279 278 277 277 276 275 275 275 274 274 273 273 272 272 271 270 269 269 268 268 267 267 266 266 266 266 267 266 267 267
283 282 282 281 281 280 280 279 279 278 278 278 277 276 276 275 275 274 274 273 273 273 272 272 271 271 270 270 269 268 268 267 267 266 266 266 266 266 266 266 267 267
282 281 280 280 279 279 279 278 278 277 276 276 275 275 274 274 273 273 273 272 272 272 271 271 270 270 270 269 269 268 267 267 266 266 266 266 266 266 266 266 267 267
Wind_Speed
62 63 63 64 64 64 64 64 64 63 62 61 60 59 58 56 54 52 51 49 47 45 43 41 39 38 35 33 32 30 28 27 25 24 24 25 26 26 26 26 25 25
63 64 64 65 66 66 66 66 66 65 64 63 62 60 58 57 56 54 53 51 49 47 45 43 41 40 37 35 33 30 28 27 25 24 25 25 26 27 27 27 26 26
60 62 64 65 66 67 67 66 66 66 65 64 63 61 59 58 57 56 55 53 51 48 46 45 43 41 39 35 33 30 28 27 25 24 25 25 26 27 27 27 27 26
54 56 59 62 64 65 66 66 66 66 65 64 64 62 60 59 58 57 56 54 52 50 47 46 44 42 39 36 33 30 28 27 25 25 25 26 27 28 28 28 27 27
50 52 54 56 58 60 62 64 65 65 65 64 62 60 59 59 58 57 56 55 52 50 48 47 44 41 39 36 33 30 28 27 26 25 25 26 27 29 29 28 28 28
48 50 51 51 52 54 57 59 61 62 62 62 61 60 59 59 59 57 56 55 53 51 49 47 44 41 39 36 33 31 29 27 26 25 26 27 27 29 29 29 29 29
46 47 48 49 49 51 52 54 55 57 59 59 59 59 59 59 59 58 57 56 53 51 48 46 45 42 39 36 33 31 29 27 26 26 27 28 28 29 29 30 30 30
44 45 45 46 47 48 49 49 51 52 54 55 56 57 58 58 59 58 57 55 53 50 48 47 46 43 40 36 34 32 29 27 27 27 28 28 29 30 30 30 30 31
41 42 42 44 44 45 45 46 47 49 50 52 53 54 55 57 57 57 55 53 51 50 48 47 46 43 40 37 34 32 29 28 28 28 29 30 31 31 31 31 31 31
39 40 40 41 42 42 42 43 44 45 46 48 49 51 52 53 54 53 52 51 50 49 48 47 45 43 40 37 35 32 30 28 29 29 30 32 33 33 32 32 32 32
38 38 38 39 39 39 40 40 41 42 43 44 45 47 48 50 51 51 50 49 48 47 46 46 45 43 40 37 34 32 30 29 30 30 31 33 34 34 34 34 33 33
37 36 37 37 36 37 37 37 38 39 40 41 42 44 45 46 47 48 48 46 46 45 44 44 44 42 39 36 33 31 30 30 31 31 33 34 34 35 35 35 34 34
35 34 34 34 34 34 35 35 36 37 38 39 40 41 42 43 44 44 44 43 43 42 42 43 42 41 39 35 33 31 31 31 32 33 34 35 35 36 35 35 35 34
33 32 32 32 32 33 33 34 34 35 36 37 38 39 39 40 41 41 41 40 40 41 41 42 42 40 37 34 32 32 32 32 33 33 35 35 36 36 35 35 35 34
30 30 30 30 31 32 32 32 33 33 34 35 36 36 36 37 38 38 38 38 39 40 40 41 41 39 37 34 32 32 32 33 33 34 35 35 35 35 35 35 35 35
28 28 29 29 30 31 31 31 31 31 32 33 33 33 34 35 36 36 36 37 37 38 39 40 40 38 35 33 31 32 32 32 33 34 34 35 35 35 35 36 35 35
27 27 28 29 30 30 29 29 28 28 29 30 30 31 32 33 34 34 35 35 35 36 37 38 38 36 33 31 30 31 32 32 33 34 34 35 35 36 36 36 35 35
26 27 28 29 29 28 27 25 25 25 26 28 29 30 31 32 33 33 33 33 34 35 36 36 35 33 31 30 30 30 31 33 34 34 35 37 36 36 36 35 35 35
26 27 28 28 26 25 24 23 24 25 26 27 28 29 30 30 31 31 32 32 32 33 34 34 33 31 29 29 30 30 30 30 31 32 33 35 36 35 34 34 34 34
26 26 25 24 23 23 23 23 25 26 27 27 28 28 28 29 29 30 30 30 30 30 31 32 31 30 29 29 30 30 29 29 30 31 31 32 33 33 33 33 33 32
23 23 22 22 22 23 23 24 25 26 27 27 27 27 27 27 27 28 28 28 28 29 30 31 31 30 30 30 30 30 29 29 30 31 32 32 31 32 33 33 32 33
20 21 21 22 22 23 23 24 25 26 27 27 26 26 25 26 26 26 26 27 27 28 30 32 32 31 31 31 30 30 30 30 31 32 32 33 33 33 34 33 33 33
20 21 22 23 23 23 24 24 24 25 25 25 25 25 25 25 24 25 26 27 28 29 31 33 33 32 30 30 30 30 30 31 32 32 32 32 33 33 33 33 34 36
22 23 23 23 24 23 23 23 23 23 24 23 23 23 23 23 23 25 26 28 29 31 32 33 34 31 29 29 30 30 30 31 31 31 31 31 32 33 34 36 38 39
23 24 24 23 23 23 22 22 21 21 21 21 20 21 22 23 24 26 28 30 31 32 32 33 33 31 28 28 29 29 29 29 30 30 30 32 34 35 36 37 38 39
24 24 23 22 22 21 21 20 19 19 19 19 19 21 22 24 26 28 30 31 31 32 31 31 31 30 28 27 28 28 28 28 29 30 32 34 35 35 36 38 38 39
Wind_Direction
259 257 256 255 254 253 252 251 252 252 252 254 255 256 257 258 259 259 259 258 257 256 255 254 255 256 258 260 261 263 266 270 274 279 281 281 280 278 275 273 272 271
261 259 258 256 255 255 254 254 253 252 253 254 255 256 256 257 257 258 258 257 256 255 253 252 253 255 256 256 258 259 262 266 271 275 278 278 277 275 274 273 272 272
263 261 260 259 258 257 257 255 254 252 252 253 254 255 254 255 256 257 257 256 255 253 251 251 251 252 253 253 254 256 259 264 269 273 275 275 274 273 272 271 270 270
265 264 263 262 261 260 258 255 254 253 252 252 253 253 252 252 253 254 255 255 253 251 250 249 249 248 249 250 251 253 257 262 266 270 272 273 273 272 270 268 267 265
268 266 265 264 263 262 259 256 255 254 253 252 252 251 250 251 251 252 253 252 251 249 248 246 246 246 247 248 249 251 254 259 264 267 269 271 271 270 269 266 264 263
270 268 266 266 265 263 261 259 258 256 254 253 251 250 249 250 250 250 251 251 249 247 246 245 245 245 246 247 248 251 253 257 263 267 269 270 268 267 267 265 264 263
273 270 268 266 265 264 263 262 260 258 256 254 252 251 250 250 250 250 250 250 248 247 246 246 245 245 245 246 248 250 253 258 263 266 268 269 267 264 263 263 264 264
274 271 269 267 266 265 265 264 262 260 258 255 253 253 252 251 250 250 250 250 249 249 247 246 246 245 245 246 247 249 251 257 264 267 267 267 265 263 261 261 261 262
273 271 269 268 266 266 267 266 264 262 259 257 256 255 254 253 253 252 251 251 250 249 247 245 244 244 244 245 247 248 252 259 264 267 268 266 263 262 261 260 259 259
272 271 269 268 268 268 269 268 266 263 262 261 259 257 256 256 255 254 253 251 250 247 245 243 243 243 244 244 246 249 254 261 264 266 267 267 265 263 261 260 259 259
272 271 269 269 269 270 270 269 268 266 265 263 260 259 258 257 256 255 253 251 249 247 244 243 242 242 242 244 246 251 257 262 265 266 266 265 264 263 262 261 260 260
273 271 271 271 272 272 272 271 270 269 267 265 262 260 259 258 256 255 254 251 249 247 244 243 241 240 241 244 247 252 259 263 266 267 267 265 264 263 262 262 262 262
275 273 272 273 274 275 275 273 271 270 268 266 264 261 260 259 257 256 255 252 249 246 244 242 240 239 241 245 249 255 260 264 267 268 267 266 265 264 263 263 264 264
276 274 273 275 276 277 277 275 273 270 267 265 264 262 261 260 258 256 254 251 248 245 243 240 239 239 242 246 251 258 263 265 267 268 267 265 264 264 263 264 265 265
277 276 275 278 279 279 279 277 274 270 267 265 264 263 262 260 258 256 253 250 247 244 242 239 239 240 243 249 255 262 265 267 269 268 267 265 263 263 263 264 265 266
278 279 280 281 282 282 280 277 274 270 267 266 265 264 262 260 258 255 252 249 246 243 241 239 239 242 246 253 261 265 267 268 269 268 266 265 264 263 264 265 266 267
282 283 283 283 282 281 279 276 273 270 268 267 266 265 262 260 257 254 251 249 245 242 240 239 241 245 252 259 264 267 269 269 268 266 264 263 263 263 264 265 266 266
285 284 283 282 281 279 277 275 273 271 270 269 268 266 263 260 256 253 250 247 243 240 239 240 244 250 257 263 265 266 269 270 269 266 265 263 262 262 263 264 264 265
284 283 282 280 279 278 277 276 276 276 274 272 270 266 263 258 254 251 248 244 241 239 240 244 250 256 261 265 267 266 265 265 264 263 263 265 266 265 265 265 265 267
282 281 280 279 279 279 280 280 281 279 277 273 269 264 259 255 251 247 244 241 240 241 245 250 256 261 265 267 266 265 262 259 257 256 257 260 263 265 267 269 270 270
281 280 279 280 281 282 282 282 280 278 274 270 265 260 256 251 247 244 241 240 242 246 251 257 261 265 268 267 264 262 260 256 253 253 254 255 255 258 261 263 265 265
281 281 281 282 282 282 281 279 277 275 272 267 262 256 251 246 242 242 242 244 248 253 258 263 266 268 268 266 263 260 257 255 252 251 252 253 253 255 257 257 256 257
283 283 284 284 283 282 280 277 275 273 269 264 258 252 247 244 243 245 248 252 255 260 264 267 268 268 265 263 261 258 256 254 254 253 253 253 255 257 257 257 256 256
287 287 287 286 285 283 281 278 274 270 265 259 253 249 247 247 249 252 256 260 263 266 267 268 267 266 263 260 258 256 254 254 254 253 252 253 255 257 257 259 261 263
290 290 289 288 287 286 283 278 272 266 260 254 249 248 249 252 255 260 264 266 268 268 268 267 267 265 262 258 256 255 253 252 251 250 250 252 255 258 259 261 264 267
292 291 290 290 290 288 282 275 267 259 253 249 248 251 255 260 264 267 269 270 270 270 268 267 266 266 263 259 257 255 253 251 249 248 249 253 256 257 259 262 265 268